Location: Songkhla
(7.2000°N, 100.6000°E)
Time: 19:00:18
(UTC+07:00)

SL-8 DEB - All Passes

Search period start: 14 May 2025 00:00
Search period end: 24 May 2025 00:00
Orbit: 1414 x 1696 km, 73.9° (Epoch: 02 June)

Date Brightness Start Highest point End Pass type
(mag) Time Alt. Az. Time Alt. Az. Time Alt. Az.
14 May - 08:11:41 10° SSE 08:18:59 33° E 08:26:27 10° NE daylight
14 May - 10:11:04 10° SW 10:18:13 31° WNW 10:25:38 10° NNW daylight
14 May - 18:54:54 10° NE 18:57:46 11° ENE 19:00:34 10° E visible
14 May - 20:47:39 10° NNW 20:57:36 87° WSW 21:07:21 10° S visible
15 May - 07:39:45 10° SE 07:45:33 20° E 07:51:25 10° NE daylight
15 May - 09:36:35 10° SSW 09:44:36 48° WNW 09:52:55 10° N daylight
15 May - 20:14:15 10° N 20:24:04 66° ENE 20:33:40 10° SSE visible
15 May - 22:17:14 10° WNW 22:23:08 18° W 22:28:58 10° SW visible
16 May - 07:09:54 10° ESE 07:12:07 11° E 07:14:20 10° E daylight
16 May - 09:02:37 10° SSW 09:11:02 74° WNW 09:19:46 10° N daylight
16 May - 19:41:14 10° N 19:50:31 45° ENE 19:59:34 10° SE visible
16 May - 21:41:44 10° NW 21:49:41 28° W 21:57:33 10° SSW visible
17 May - 08:29:05 10° S 08:37:31 75° ESE 08:46:15 10° NNE daylight
17 May - 10:34:43 10° W 10:37:15 11° WNW 10:39:50 10° NW daylight
17 May - 19:08:40 10° NNE 19:16:54 30° ENE 19:24:55 10° SE visible
17 May - 21:07:09 10° NNW 21:16:16 43° W 21:25:13 10° SSW visible
18 May - 07:56:00 10° S 08:04:03 49° E 08:12:21 10° NNE daylight
18 May - 09:57:37 10° WSW 10:03:30 20° WNW 10:09:33 10° NNW daylight
18 May - 18:36:53 10° NNE 18:43:12 19° ENE 18:49:24 10° ESE visible
18 May - 20:33:04 10° NNW 20:42:49 64° W 20:52:20 10° S visible
19 May - 07:23:24 10° SSE 07:30:36 31° E 07:37:58 10° NE daylight
19 May - 09:22:28 10° SW 09:29:48 33° WNW 09:37:27 10° NNW daylight
19 May - 18:07:53 10° ENE 18:09:25 10° ENE 18:10:57 10° E daylight
19 May - 19:59:23 10° NNW 20:09:19 89° ENE 20:19:00 10° SSE visible
19 May - 22:07:20 10° W 22:08:16 10° W 22:09:12 10° WSW visible
20 May - 06:51:37 10° SE 06:57:10 19° E 07:02:49 10° ENE daylight
20 May - 08:48:04 10° SSW 08:56:12 51° WNW 09:04:40 10° N daylight
20 May - 19:26:02 10° N 19:35:48 63° ENE 19:45:17 10° SSE visible
20 May - 21:28:39 10° WNW 21:34:51 19° W 21:40:59 10° SW visible
21 May - 06:22:50 10° ESE 06:23:44 10° E 06:24:39 10° E daylight
21 May - 08:14:10 10° SSW 08:22:38 78° WNW 08:31:28 10° N daylight
21 May - 18:53:03 10° N 19:02:13 42° ENE 19:11:08 10° SE visible
21 May - 20:53:19 10° NW 21:01:26 30° W 21:09:24 10° SSW visible
22 May - 07:40:42 10° S 07:49:07 71° E 07:57:54 10° NNE daylight
22 May - 09:45:26 10° W 09:48:50 13° WNW 09:52:18 10° NW daylight
22 May - 18:20:34 10° NNE 18:28:35 28° ENE 18:36:23 10° SE daylight
22 May - 20:18:47 10° NNW 20:28:00 45° W 20:36:59 10° S visible
23 May - 07:07:39 10° S 07:15:39 46° E 07:23:56 10° NNE daylight
23 May - 09:08:53 10° WSW 09:15:05 22° WNW 09:21:29 10° NNW daylight
23 May - 17:48:57 10° NE 17:54:53 17° ENE 18:00:42 10° ESE daylight
23 May - 19:44:46 10° NNW 19:54:32 67° W 20:04:02 10° S visible
